EN

Hourly Weather Brzeczek

Today, 16 April, Friday

Time Temperature Precipitation Wind Pressure Humidity
00:00 +1°C° 0 mm 4 mps 754 mmHg 84%
01:00 +1°C° 0 mm 4 mps 754 mmHg 84%
02:00 +1°C° 0 mm 4 mps 754 mmHg 84%
03:00 +1°C° 0 mm 4 mps 754 mmHg 84%
04:00 +1°C° 0 mm 4 mps 754 mmHg 85%
05:00 +1°C° 0 mm 5 mps 754 mmHg 85%
06:00 +1°C° 0 mm 5 mps 753 mmHg 85%
07:00 +1°C° 0 mm 5 mps 753 mmHg 86%
08:00 +1°C° 0 mm 5 mps 753 mmHg 88%
09:00 +1°C° 0 mm 4 mps 753 mmHg 91%
10:00 +1°C° 0 mm 4 mps 754 mmHg 94%
11:00 +2°C° 0 mm 5 mps 753 mmHg 89%
12:00 +3°C° 0 mm 5 mps 753 mmHg 85%
13:00 +5°C° 0 mm 5 mps 753 mmHg 80%
14:00 +3°C° 0.2 mm 5 mps 753 mmHg 82%
15:00 +3°C° 0.2 mm 5 mps 753 mmHg 83%
16:00 +3°C° 0.2 mm 5 mps 753 mmHg 85%
17:00 +3°C° 0.3 mm 5 mps 753 mmHg 88%
18:00 +3°C° 0.3 mm 4 mps 753 mmHg 90%
19:00 +3°C° 0.3 mm 4 mps 753 mmHg 93%
20:00 +3°C° 0 mm 4 mps 753 mmHg 94%
21:00 +3°C° 0 mm 3 mps 753 mmHg 95%
22:00 +4°C° 0 mm 3 mps 753 mmHg 97%
23:00 +4°C° 0 mm 3 mps 753 mmHg 97%

Tomorrow, 17 April, Saturday

Time Temperature Precipitation Wind Pressure Humidity
00:00 +5°C° 0 mm 2 mps 753 mmHg 97%
01:00 +5°C° 0 mm 2 mps 753 mmHg 96%
02:00 +5°C° 0 mm 2 mps 753 mmHg 97%
03:00 +5°C° 0 mm 3 mps 753 mmHg 97%
04:00 +5°C° 0 mm 3 mps 753 mmHg 97%
05:00 +5°C° 0 mm 3 mps 753 mmHg 95%
06:00 +5°C° 0 mm 3 mps 754 mmHg 94%
07:00 +5°C° 0 mm 4 mps 754 mmHg 93%
08:00 +6°C° 0.2 mm 4 mps 754 mmHg 92%
09:00 +6°C° 0.2 mm 4 mps 754 mmHg 90%
10:00 +7°C° 0.2 mm 4 mps 754 mmHg 88%
11:00 +8°C° 0.3 mm 3 mps 754 mmHg 90%
12:00 +8°C° 0.3 mm 3 mps 754 mmHg 91%
13:00 +8°C° 0.3 mm 3 mps 754 mmHg 93%
14:00 +9°C° 0 mm 3 mps 754 mmHg 88%
15:00 +10°C° 0 mm 4 mps 754 mmHg 84%
16:00 +11°C° 0 mm 4 mps 754 mmHg 80%
17:00 +10°C° 0 mm 4 mps 754 mmHg 84%
18:00 +9°C° 0 mm 3 mps 754 mmHg 88%
19:00 +8°C° 0 mm 3 mps 754 mmHg 92%
20:00 +7°C° 0 mm 3 mps 754 mmHg 93%
21:00 +7°C° 0 mm 3 mps 755 mmHg 94%
22:00 +5°C° 0 mm 3 mps 755 mmHg 95%
23:00 +6°C° 0 mm 2 mps 755 mmHg 95%

Day after tomorrow, 18 April, Sunday

Time Temperature Precipitation Wind Pressure Humidity
00:00 +6°C° 0 mm 2 mps 755 mmHg 95%
01:00 +5°C° 0 mm 2 mps 755 mmHg 95%
02:00 +5°C° 0 mm 2 mps 755 mmHg 96%
03:00 +5°C° 0 mm 2 mps 755 mmHg 96%
04:00 +5°C° 0 mm 2 mps 755 mmHg 96%
05:00 +5°C° 0 mm 3 mps 755 mmHg 94%
06:00 +7°C° 0 mm 3 mps 755 mmHg 91%
07:00 +7°C° 0 mm 4 mps 755 mmHg 88%
08:00 +8°C° 0 mm 4 mps 755 mmHg 82%
09:00 +11°C° 0 mm 4 mps 755 mmHg 75%
10:00 +12°C° 0 mm 4 mps 755 mmHg 68%
11:00 +13°C° 0 mm 4 mps 755 mmHg 65%
12:00 +13°C° 0 mm 4 mps 755 mmHg 63%
13:00 +13°C° 0 mm 5 mps 755 mmHg 61%
14:00 +13°C° 0 mm 5 mps 755 mmHg 62%
15:00 +13°C° 0 mm 5 mps 754 mmHg 64%
16:00 +13°C° 0 mm 5 mps 754 mmHg 65%
17:00 +10°C° 0 mm 5 mps 754 mmHg 70%
18:00 +10°C° 0 mm 4 mps 755 mmHg 74%
19:00 +8°C° 0 mm 4 mps 755 mmHg 78%
20:00 +8°C° 0 mm 3 mps 755 mmHg 78%
21:00 +7°C° 0 mm 3 mps 755 mmHg 78%
22:00 +5°C° 0 mm 3 mps 755 mmHg 78%
23:00 +6°C° 0 mm 2 mps 754 mmHg 80%

19 April, Monday

Time Temperature Precipitation Wind Pressure Humidity
00:00 +6°C° 0 mm 2 mps 754 mmHg 82%
01:00 +6°C° 0 mm 2 mps 754 mmHg 84%
02:00 +6°C° 0 mm 2 mps 754 mmHg 86%
03:00 +5°C° 0 mm 2 mps 754 mmHg 88%
04:00 +5°C° 0 mm 2 mps 754 mmHg 90%
05:00 +7°C° 0 mm 2 mps 754 mmHg 85%
06:00 +8°C° 0 mm 2 mps 754 mmHg 81%
07:00 +9°C° 0 mm 2 mps 754 mmHg 76%
08:00 +10°C° 0 mm 2 mps 754 mmHg 73%
09:00 +11°C° 0 mm 3 mps 754 mmHg 70%
10:00 +11°C° 0 mm 3 mps 753 mmHg 67%
11:00 +12°C° 0.1 mm 3 mps 753 mmHg 62%
12:00 +12°C° 0.1 mm 3 mps 753 mmHg 58%
13:00 +13°C° 0.1 mm 3 mps 753 mmHg 53%
14:00 +13°C° 0 mm 3 mps 753 mmHg 53%
15:00 +13°C° 0 mm 4 mps 752 mmHg 53%
16:00 +13°C° 0 mm 4 mps 752 mmHg 53%
17:00 +11°C° 0 mm 4 mps 752 mmHg 61%
18:00 +9°C° 0 mm 3 mps 752 mmHg 69%
19:00 +8°C° 0 mm 3 mps 752 mmHg 77%
20:00 +7°C° 0 mm 3 mps 752 mmHg 77%
21:00 +6°C° 0 mm 2 mps 751 mmHg 78%
22:00 +5°C° 0 mm 2 mps 751 mmHg 78%
23:00 +5°C° 0 mm 2 mps 751 mmHg 81%

20 April, Tuesday

Time Temperature Precipitation Wind Pressure Humidity
00:00 +5°C° 0 mm 2 mps 751 mmHg 84%
01:00 +4°C° 0 mm 2 mps 750 mmHg 87%
02:00 +4°C° 0 mm 2 mps 750 mmHg 89%
03:00 +4°C° 0 mm 2 mps 750 mmHg 91%
04:00 +4°C° 0 mm 2 mps 750 mmHg 93%
05:00 +4°C° 0 mm 3 mps 750 mmHg 88%
06:00 +5°C° 0 mm 3 mps 749 mmHg 83%
07:00 +7°C° 0 mm 3 mps 749 mmHg 78%
08:00 +7°C° 0 mm 4 mps 749 mmHg 72%
09:00 +10°C° 0 mm 4 mps 749 mmHg 66%
10:00 +11°C° 0 mm 4 mps 748 mmHg 60%
11:00 +11°C° 0 mm 4 mps 748 mmHg 58%
12:00 +11°C° 0 mm 4 mps 748 mmHg 57%
13:00 +11°C° 0 mm 4 mps 747 mmHg 55%
14:00 +11°C° 0 mm 4 mps 747 mmHg 57%
15:00 +9°C° 0 mm 5 mps 747 mmHg 58%
16:00 +9°C° 0 mm 5 mps 747 mmHg 59%
17:00 +8°C° 0 mm 4 mps 747 mmHg 66%
18:00 +6°C° 0 mm 4 mps 746 mmHg 72%
19:00 +5°C° 0 mm 4 mps 746 mmHg 78%
20:00 +4°C° 0 mm 4 mps 746 mmHg 82%
21:00 +4°C° 0 mm 4 mps 746 mmHg 86%
22:00 +3°C° 0 mm 4 mps 745 mmHg 91%
23:00 +3°C° 0 mm 4 mps 745 mmHg 90%

21 April, Wednesday

Time Temperature Precipitation Wind Pressure Humidity
00:00 +3°C° 0 mm 4 mps 745 mmHg 89%
01:00 +3°C° 0 mm 4 mps 745 mmHg 88%
02:00 +3°C° 0 mm 4 mps 744 mmHg 85%
03:00 +3°C° 0 mm 5 mps 744 mmHg 83%
04:00 +3°C° 0 mm 5 mps 744 mmHg 80%
05:00 +3°C° 0 mm 5 mps 744 mmHg 78%
06:00 +5°C° 0 mm 5 mps 744 mmHg 76%
07:00 +4°C° 0 mm 6 mps 744 mmHg 74%
08:00 +5°C° 0 mm 6 mps 744 mmHg 68%
09:00 +8°C° 0 mm 6 mps 744 mmHg 61%
10:00 +9°C° 0 mm 6 mps 744 mmHg 54%
11:00 +9°C° 0 mm 5 mps 744 mmHg 51%
12:00 +10°C° 0 mm 5 mps 744 mmHg 48%
13:00 +12°C° 0 mm 5 mps 744 mmHg 45%
14:00 +10°C° 0 mm 5 mps 744 mmHg 47%
15:00 +10°C° 0 mm 5 mps 744 mmHg 48%
16:00 +10°C° 0 mm 5 mps 744 mmHg 49%
17:00 +9°C° 0 mm 5 mps 745 mmHg 56%
18:00 +8°C° 0 mm 5 mps 745 mmHg 62%
19:00 +7°C° 0 mm 4 mps 745 mmHg 69%
20:00 +6°C° 0 mm 4 mps 745 mmHg 73%
21:00 +6°C° 0 mm 4 mps 745 mmHg 78%
22:00 +5°C° 0 mm 4 mps 745 mmHg 82%
23:00 +5°C° 0 mm 4 mps 745 mmHg 84%
Show more

We Need Your Consent

Meteoprog and our Service Providers may store and access personal data such as cookies, device identifiers or other similar technologies on your device and process such data to personalise content and ads, as well as provide social media features and to analyse the traffic.

  • Store and/or access information on your device

    Cookies, device identifiers or other information can be stored or accessed on your device for the purposes indicated above.

  • Personalised ads and content, ad and content measurement, audience insights, and products development

    Ads and content can be personalised based on a profile. More data can be added to better personalise ads and content. Ad and content performance can be measured. Insights about the audience who saw the ads and content can be derived. Such data can be used to develop or improve user’s experience, systems and software.

By clicking ‘I Agree’ you will allow the use of indicated cookies, device identifiers, web beacons or other similar technologies. Your settings can be changed in the browser on your device.

For certain purposes, legitimate interests may be relied on, rather than consent. You can read more about this in our Privacy and Cookie Policy.